N456SB LIRF-LFKJ

Flight info

Callsign N456SB
Flight time N/A
Altitude 15000
Route XENOL DCT GISPA/N0391F130 Z154 ASKAG
Aircraft C700/M-SBDGHM1RWXY/LB2

Departure

Time 2026-05-07 18:24
Airport Rome–Fiumicino Leonardo da Vinci International Airport (LIRF)

Arrival

Time N/A
Airport Ajaccio Napoléon Bonaparte airport (LFKJ)
Time Latitude Longitude Altitude Speed Heading
2026-05-07 18:12 41.80260 12.26223 9 ft 0 kts 204°
2026-05-07 18:15 41.80268 12.26228 9 ft 2 kts 204°
2026-05-07 18:15 41.80311 12.26252 9 ft 7 kts 165°
2026-05-07 18:15 41.80325 12.26237 9 ft 0 kts 118°
2026-05-07 18:16 41.80318 12.26256 9 ft 11 kts 118°
2026-05-07 18:16 41.80283 12.26395 9 ft 0 kts 60°
2026-05-07 18:16 41.80289 12.26394 9 ft 4 kts 359°
2026-05-07 18:17 41.80345 12.26369 9 ft 12 kts 340°
2026-05-07 18:17 41.80428 12.26398 9 ft 13 kts 34°
2026-05-07 18:17 41.80451 12.26485 9 ft 10 kts 62°
2026-05-07 18:17 41.80480 12.26583 9 ft 13 kts 71°
2026-05-07 18:18 41.80514 12.26713 9 ft 17 kts 70°
2026-05-07 18:18 41.80557 12.26865 9 ft 19 kts 69°
2026-05-07 18:18 41.80608 12.27042 8 ft 22 kts 69°
2026-05-07 18:18 41.80651 12.27204 9 ft 0 kts 71°
2026-05-07 18:19 41.80674 12.27248 9 ft 12 kts 44°
2026-05-07 18:19 41.80758 12.27292 8 ft 15 kts 358°
2026-05-07 18:19 41.80848 12.27258 6 ft 0 kts 342°
2026-05-07 18:21 41.80855 12.27255 6 ft 6 kts 342°
2026-05-07 18:21 41.80955 12.27210 6 ft 21 kts 341°
2026-05-07 18:22 41.81012 12.27132 6 ft 8 kts 263°
2026-05-07 18:22 41.80993 12.27054 5 ft 18 kts 249°
2026-05-07 18:22 41.80960 12.26929 6 ft 0 kts 249°
2026-05-07 18:23 41.80958 12.26921 6 ft 13 kts 249°
2026-05-07 18:23 41.80801 12.26358 12 ft 111 kts 252°
2026-05-07 18:23 41.80451 12.25105 300 ft 165 kts 252°
2026-05-07 18:24 41.80018 12.23497 774 ft 215 kts 252°
2026-05-07 18:24 41.79464 12.21582 1123 ft 211 kts 246°
2026-05-07 18:24 41.78494 12.20160 1449 ft 212 kts 214°
2026-05-07 18:24 41.77238 12.19192 2119 ft 205 kts 211°
2026-05-07 18:25 41.76005 12.18136 3170 ft 218 kts 212°
2026-05-07 18:25 41.74655 12.16966 4236 ft 245 kts 211°
2026-05-07 18:25 41.73295 12.15425 5325 ft 266 kts 231°
2026-05-07 18:25 41.72368 12.13258 6416 ft 274 kts 247°
2026-05-07 18:26 41.72008 12.10731 7455 ft 279 kts 267°
2026-05-07 18:26 41.72265 12.08152 8543 ft 281 kts 281°
2026-05-07 18:26 41.72692 12.05584 9663 ft 285 kts 280°
2026-05-07 18:26 41.73098 12.02997 10700 ft 294 kts 280°
2026-05-07 18:27 41.73543 12.00208 11776 ft 319 kts 280°
2026-05-07 18:27 41.74026 11.97210 12892 ft 342 kts 281°
2026-05-07 18:27 41.74536 11.94022 13904 ft 342 kts 280°
2026-05-07 18:27 41.74861 11.92007 14594 ft 330 kts 280°
2026-05-07 18:28 41.75563 11.87739 15062 ft 373 kts 284°
2026-05-07 18:28 41.76780 11.84579 15048 ft 391 kts 306°
2026-05-07 18:28 41.78830 11.82162 15044 ft 399 kts 326°
2026-05-07 18:28 41.81397 11.80845 15047 ft 405 kts 346°
2026-05-07 18:29 41.84260 11.80565 15060 ft 408 kts 358°
2026-05-07 18:29 41.87063 11.80704 15078 ft 409 kts
2026-05-07 18:29 41.89887 11.80668 15067 ft 405 kts 348°
2026-05-07 18:29 41.92468 11.79269 15060 ft 399 kts 324°
2026-05-07 18:30 41.94374 11.76645 15049 ft 392 kts 301°
2026-05-07 18:30 41.95318 11.73271 15038 ft 387 kts 277°
2026-05-07 18:30 41.95163 11.69711 15019 ft 383 kts 255°
2026-05-07 18:30 41.94149 11.66407 15008 ft 383 kts 240°
2026-05-07 18:31 41.92686 11.63414 15014 ft 384 kts 235°
2026-05-07 18:31 41.91146 11.60485 15017 ft 384 kts 235°
2026-05-07 18:31 41.89741 11.57445 15018 ft 383 kts 241°
2026-05-07 18:31 41.88560 11.54237 15024 ft 383 kts 244°
2026-05-07 18:32 41.87385 11.51020 15024 ft 385 kts 242°
2026-05-07 18:32 41.86076 11.47889 15026 ft 386 kts 239°
2026-05-07 18:32 41.84750 11.44759 15028 ft 386 kts 241°
2026-05-07 18:32 41.83512 11.41631 15031 ft 385 kts 242°
2026-05-07 18:33 41.82346 11.38670 15033 ft 384 kts 242°
2026-05-07 18:33 41.81258 11.35297 15023 ft 386 kts 252°
2026-05-07 18:33 41.80658 11.31787 15023 ft 387 kts 261°
2026-05-07 18:33 41.80512 11.28183 15014 ft 388 kts 269°
2026-05-07 18:34 41.80510 11.24569 15016 ft 387 kts 268°
2026-05-07 18:34 41.80480 11.20971 15020 ft 386 kts 268°
2026-05-07 18:34 41.80468 11.17375 15023 ft 386 kts 269°
2026-05-07 18:34 41.80461 11.13767 15026 ft 388 kts 268°
2026-05-07 18:35 41.80443 11.10194 15025 ft 389 kts 268°
2026-05-07 18:35 41.80425 11.06586 15031 ft 387 kts 268°
2026-05-07 18:35 41.80406 11.02974 15028 ft 387 kts 268°
2026-05-07 18:35 41.80386 10.99360 15030 ft 388 kts 268°
2026-05-07 18:36 41.80367 10.95739 15030 ft 389 kts 268°
2026-05-07 18:36 41.80344 10.92117 15030 ft 388 kts 268°
2026-05-07 18:36 41.80322 10.88515 15029 ft 386 kts 268°
2026-05-07 18:36 41.80297 10.84904 15035 ft 388 kts 268°
2026-05-07 18:37 41.80271 10.81285 15033 ft 389 kts 268°
2026-05-07 18:37 41.80247 10.77709 15037 ft 389 kts 268°
2026-05-07 18:37 41.80218 10.74091 15037 ft 387 kts 268°
2026-05-07 18:37 41.80191 10.70476 15038 ft 388 kts 268°
2026-05-07 18:38 41.80160 10.66865 15038 ft 389 kts 268°
2026-05-07 18:38 41.80129 10.63238 15035 ft 389 kts 268°
2026-05-07 18:38 41.80098 10.59615 15041 ft 389 kts 268°
2026-05-07 18:38 41.80063 10.55986 15042 ft 389 kts 268°
2026-05-07 18:39 41.80031 10.52370 15039 ft 388 kts 268°
2026-05-07 18:39 41.79994 10.48755 15040 ft 388 kts 268°
2026-05-07 18:39 41.79959 10.45195 15040 ft 387 kts 268°
2026-05-07 18:39 41.79920 10.41584 15041 ft 388 kts 268°
2026-05-07 18:40 41.79881 10.37960 15039 ft 389 kts 268°
2026-05-07 18:40 41.79843 10.34330 15037 ft 390 kts 268°
2026-05-07 18:40 41.79800 10.30705 15047 ft 389 kts 268°
2026-05-07 18:40 41.79758 10.27031 15041 ft 387 kts 268°
2026-05-07 18:41 41.79717 10.23613 15042 ft 388 kts 268°
2026-05-07 18:41 41.79671 10.19995 15042 ft 390 kts 268°
2026-05-07 18:41 41.79628 10.16424 15040 ft 389 kts 268°
2026-05-07 18:41 41.79580 10.12813 15048 ft 387 kts 268°
2026-05-07 18:42 41.79533 10.09194 15042 ft 389 kts 268°
2026-05-07 18:42 41.79483 10.05571 15043 ft 389 kts 268°
2026-05-07 18:42 41.79433 10.01942 15038 ft 389 kts 268°
2026-05-07 18:42 41.79384 9.98327 15038 ft 388 kts 268°
2026-05-07 18:43 41.79330 9.94713 15038 ft 387 kts 268°
2026-05-07 18:43 41.79280 9.91154 15040 ft 387 kts 268°
2026-05-07 18:43 41.79225 9.87552 15044 ft 387 kts 268°
2026-05-07 18:43 41.79169 9.83936 15037 ft 389 kts 268°
2026-05-07 18:44 41.79114 9.80316 15038 ft 389 kts 268°
2026-05-07 18:44 41.79055 9.76700 15039 ft 389 kts 268°
2026-05-07 18:44 41.78998 9.73088 15042 ft 388 kts 268°
2026-05-07 18:44 41.78936 9.69465 15042 ft 388 kts 268°
2026-05-07 18:45 41.78873 9.65806 15040 ft 387 kts 268°
2026-05-07 18:45 41.78811 9.62212 15038 ft 387 kts 268°
2026-05-07 18:45 41.78746 9.58592 15047 ft 387 kts 268°
2026-05-07 18:45 41.78682 9.54982 15042 ft 389 kts 268°
2026-05-07 18:46 41.78614 9.51352 15046 ft 390 kts 267°
2026-05-07 18:46 41.78547 9.47723 15044 ft 389 kts 267°
2026-05-07 18:46 41.78479 9.44105 15047 ft 388 kts 267°
2026-05-07 18:46 41.78408 9.40495 15048 ft 387 kts 267°
2026-05-07 18:47 41.78339 9.36891 15045 ft 387 kts 267°
2026-05-07 18:47 41.78266 9.33327 15041 ft 388 kts 267°
2026-05-07 18:47 41.78192 9.29717 15046 ft 389 kts 267°
2026-05-07 18:47 41.78118 9.26084 15039 ft 390 kts 267°
2026-05-07 18:48 41.78041 9.22471 15037 ft 387 kts 267°
2026-05-07 18:48 41.77964 9.18864 15041 ft 388 kts 267°
2026-05-07 18:48 41.77889 9.15247 14696 ft 386 kts 267°
2026-05-07 18:48 41.77812 9.11732 13985 ft 370 kts 267°
2026-05-07 18:49 41.77743 9.08482 13239 ft 355 kts 267°
2026-05-07 18:49 41.77670 9.05285 12469 ft 343 kts 267°
2026-05-07 18:49 41.77599 9.02128 11701 ft 334 kts 267°
2026-05-07 18:49 41.77526 8.99050 10956 ft 327 kts 266°
2026-05-07 18:50 41.77459 8.96033 10223 ft 321 kts 266°
2026-05-07 18:50 41.77389 8.93067 9472 ft 317 kts 266°
2026-05-07 18:50 41.77318 8.90132 8694 ft 313 kts 267°
2026-05-07 18:50 41.77257 8.87237 8053 ft 307 kts 267°
2026-05-07 18:51 41.77225 8.85394 8025 ft 290 kts 267°
2026-05-07 18:51 41.77154 8.82039 8013 ft 273 kts 267°
2026-05-07 18:51 41.77094 8.79468 8016 ft 279 kts 267°
2026-05-07 18:51 41.77038 8.76853 8012 ft 282 kts 267°
2026-05-07 18:52 41.76976 8.74204 7732 ft 290 kts 267°
2026-05-07 18:52 41.76897 8.71525 7263 ft 286 kts 266°
2026-05-07 18:52 41.76597 8.68945 6473 ft 273 kts 248°
2026-05-07 18:52 41.75496 8.67082 5382 ft 246 kts 215°
2026-05-07 18:53 41.74065 8.65968 4306 ft 232 kts 207°
2026-05-07 18:53 41.73157 8.65257 3601 ft 226 kts 208°
2026-05-07 18:53 41.71716 8.64905 2997 ft 198 kts 163°
2026-05-07 18:53 41.70699 8.66062 2999 ft 209 kts 116°
2026-05-07 18:54 41.70805 8.68518 2998 ft 207 kts 57°
2026-05-07 18:54 41.71959 8.69585 3000 ft 210 kts 13°
2026-05-07 18:54 41.73466 8.69631 2583 ft 226 kts 359°
2026-05-07 18:54 41.74991 8.69739 2044 ft 210 kts
2026-05-07 18:55 41.75889 8.70009 2021 ft 189 kts 18°
2026-05-07 18:55 41.77024 8.70652 2007 ft 168 kts 26°
2026-05-07 18:55 41.78050 8.71313 2011 ft 162 kts 26°
2026-05-07 18:55 41.79078 8.71954 2010 ft 165 kts 26°
2026-05-07 18:56 41.80117 8.72605 2015 ft 165 kts 26°
2026-05-07 18:56 41.81160 8.73249 2016 ft 165 kts 25°
2026-05-07 18:56 41.82199 8.73896 2017 ft 165 kts 25°
2026-05-07 18:56 41.83243 8.74543 2015 ft 165 kts 25°
2026-05-07 18:57 41.84352 8.74741 2021 ft 164 kts 352°
2026-05-07 18:57 41.85338 8.74078 2026 ft 165 kts 301°
2026-05-07 18:57 41.85338 8.72655 2375 ft 168 kts 246°
2026-05-07 18:57 41.84749 8.71250 2514 ft 175 kts 234°
2026-05-07 18:58 41.84031 8.69938 2384 ft 172 kts 231°
2026-05-07 18:58 41.83430 8.68570 2211 ft 171 kts 245°
2026-05-07 18:58 41.82953 8.67112 2024 ft 166 kts 245°
2026-05-07 18:58 41.82392 8.65794 2002 ft 163 kts 222°
2026-05-07 18:59 41.81332 8.65360 2013 ft 165 kts 179°
2026-05-07 18:59 41.80200 8.65086 2010 ft 168 kts 202°
2026-05-07 18:59 41.79147 8.64421 2015 ft 167 kts 203°
2026-05-07 18:59 41.78071 8.63839 2012 ft 166 kts 200°
2026-05-07 19:00 41.77022 8.63260 2017 ft 166 kts 202°
2026-05-07 19:00 41.75955 8.62666 2012 ft 166 kts 201°
2026-05-07 19:00 41.74883 8.62072 2011 ft 167 kts 201°
2026-05-07 19:00 41.73933 8.61574 2015 ft 167 kts 194°
2026-05-07 19:01 41.72792 8.61632 2010 ft 166 kts 162°
2026-05-07 19:01 41.71781 8.62350 2003 ft 164 kts 137°
2026-05-07 19:01 41.71140 8.63589 2005 ft 163 kts 112°
2026-05-07 19:01 41.70968 8.65069 2000 ft 163 kts 86°
2026-05-07 19:02 41.71304 8.66500 2002 ft 163 kts 60°
2026-05-07 19:02 41.72081 8.67588 2000 ft 163 kts 34°
2026-05-07 19:02 41.73127 8.68176 2011 ft 165 kts 21°
2026-05-07 19:02 41.74156 8.68863 2009 ft 166 kts 29°
2026-05-07 19:03 41.75204 8.69509 2015 ft 166 kts 24°
2026-05-07 19:03 41.76253 8.70165 2017 ft 166 kts 27°
2026-05-07 19:03 41.77282 8.70824 2042 ft 153 kts 25°
2026-05-07 19:03 41.78217 8.71383 2026 ft 148 kts 26°
2026-05-07 19:04 41.79132 8.71977 2029 ft 145 kts 26°
2026-05-07 19:04 41.80100 8.72556 1995 ft 166 kts 25°
2026-05-07 19:04 41.81218 8.73277 2013 ft 192 kts 27°
2026-05-07 19:04 41.82489 8.74072 1928 ft 210 kts 25°
2026-05-07 19:05 41.83815 8.74874 1659 ft 211 kts 25°
2026-05-07 19:05 41.85115 8.75707 1384 ft 205 kts 25°
2026-05-07 19:05 41.86381 8.76380 1405 ft 193 kts
2026-05-07 19:05 41.87699 8.76014 1408 ft 202 kts 328°
2026-05-07 19:06 41.88532 8.74519 1412 ft 206 kts 288°
2026-05-07 19:06 41.87872 8.70831 1426 ft 210 kts 245°
2026-05-07 19:06 41.87262 8.69103 1748 ft 198 kts 245°
2026-05-07 19:07 41.86661 8.67355 2226 ft 210 kts 245°
2026-05-07 19:07 41.86069 8.65581 2702 ft 209 kts 245°
2026-05-07 19:07 41.85475 8.63765 3185 ft 215 kts 245°
2026-05-07 19:07 41.84887 8.61959 3642 ft 214 kts 245°
2026-05-07 19:08 41.84294 8.60122 4125 ft 215 kts 245°
2026-05-07 19:08 41.83702 8.58285 4608 ft 215 kts 245°
2026-05-07 19:08 41.83101 8.56429 5005 ft 221 kts 245°
2026-05-07 19:08 41.82478 8.54519 5020 ft 222 kts 245°
2026-05-07 19:09 41.81867 8.52657 5016 ft 216 kts 245°
2026-05-07 19:09 41.81265 8.50818 5019 ft 215 kts 245°
2026-05-07 19:09 41.80664 8.48984 5014 ft 215 kts 245°
2026-05-07 19:09 41.80060 8.47144 5013 ft 215 kts 243°
2026-05-07 19:10 41.79052 8.45740 5004 ft 213 kts 203°
2026-05-07 19:10 41.77613 8.45685 4999 ft 212 kts 159°
2026-05-07 19:10 41.76554 8.46994 5001 ft 213 kts 116°
2026-05-07 19:10 41.76271 8.48938 5006 ft 215 kts 95°
2026-05-07 19:11 41.76113 8.50928 5015 ft 215 kts 101°
2026-05-07 19:11 41.75694 8.52844 5016 ft 215 kts 114°
2026-05-07 19:11 41.74983 8.54551 5018 ft 214 kts 123°
2026-05-07 19:11 41.74174 8.56245 5017 ft 214 kts 122°
2026-05-07 19:12 41.73408 8.57952 5024 ft 214 kts 121°
2026-05-07 19:12 41.72666 8.59632 5020 ft 214 kts 121°
2026-05-07 19:12 41.71970 8.61389 5021 ft 214 kts 114°
2026-05-07 19:12 41.71435 8.63249 5023 ft 214 kts 112°
2026-05-07 19:13 41.70856 8.65076 5021 ft 214 kts 115°
2026-05-07 19:13 41.70241 8.66895 5027 ft 214 kts 115°
2026-05-07 19:13 41.69635 8.68717 5023 ft 214 kts 114°
2026-05-07 19:13 41.69033 8.70539 5026 ft 213 kts 114°
2026-05-07 19:14 41.68433 8.72347 5024 ft 212 kts 114°
2026-05-07 19:14 41.67829 8.74164 5021 ft 219 kts 114°
2026-05-07 19:14 41.67183 8.76104 5028 ft 246 kts 114°
2026-05-07 19:14 41.66457 8.78284 5031 ft 263 kts 114°
2026-05-07 19:15 41.65707 8.80539 5029 ft 268 kts 114°
2026-05-07 19:15 41.64948 8.82823 5032 ft 268 kts 114°
2026-05-07 19:15 41.64190 8.85097 5033 ft 268 kts 114°
2026-05-07 19:15 41.63431 8.87372 5036 ft 267 kts 114°
2026-05-07 19:16 41.62677 8.89634 5034 ft 267 kts 114°
2026-05-07 19:16 41.61918 8.91901 5032 ft 267 kts 114°
2026-05-07 19:16 41.60985 8.94032 5023 ft 268 kts 132°
2026-05-07 19:16 41.59541 8.95546 5016 ft 268 kts 146°
2026-05-07 19:17 41.57981 8.96900 5026 ft 267 kts 147°
2026-05-07 19:17 41.56409 8.98226 5025 ft 267 kts 147°
2026-05-07 19:17 41.54839 8.99535 5029 ft 265 kts 147°
2026-05-07 19:17 41.53399 9.00732 5100 ft 223 kts 148°
2026-05-07 19:18 41.51957 9.01276 4550 ft 214 kts 178°
2026-05-07 19:18 41.50618 9.00677 3723 ft 200 kts 211°
2026-05-07 19:18 41.49516 8.99565 2863 ft 192 kts 209°
2026-05-07 19:18 41.48367 8.99389 2672 ft 164 kts 156°
2026-05-07 19:19 41.47388 9.00179 2143 ft 169 kts 140°
2026-05-07 19:19 41.46676 9.01358 1522 ft 161 kts 113°
2026-05-07 19:19 41.46413 9.02759 1060 ft 148 kts 90°
2026-05-07 19:19 41.46565 9.04087 906 ft 150 kts 72°
2026-05-07 19:20 41.47114 9.05288 722 ft 156 kts 48°
2026-05-07 19:20 41.47897 9.06312 525 ft 157 kts 47°
2026-05-07 19:20 41.48580 9.07307 351 ft 140 kts 50°
2026-05-07 19:20 41.49258 9.08294 198 ft 143 kts 46°
2026-05-07 19:21 41.49852 9.09147 82 ft 107 kts 47°
2026-05-07 19:21 41.50248 9.09729 62 ft 33 kts 47°
2026-05-07 19:21 41.50280 9.09795 67 ft 5 kts 101°
2026-05-07 19:21 41.50290 9.09803 64 ft 3 kts 347°
2026-05-07 19:22 41.50273 9.09759 66 ft 8 kts 228°
2026-05-07 19:22 41.50206 9.09692 61 ft 16 kts 180°
2026-05-07 19:22 41.50125 9.09785 65 ft 7 kts 137°
2026-05-07 19:22 41.50071 9.09812 65 ft 11 kts 192°
2026-05-07 19:23 41.50012 9.09823 63 ft 7 kts 136°
2026-05-07 19:23 41.49993 9.09845 65 ft 0 kts 138°